#timestamp,LO_Frequency,Hit,StdDev 
1704787215.3,286046996.9,N
1704787235.2,286046996.9,N
1704787255.0,286046996.8,N
1704787255.9,286046996.8,N
1704787275.7,286046997.0,N
1704787295.6,286046999.4,N
1704787315.4,286046996.5,N
1704787335.3,286046999.1,N
1704787355.1,286046997.2,N
1704787375.8,286046996.7,N
1704787395.7,286046999.2,N
1704787415.5,286046997.1,N
1704787435.4,286046996.5,N
1704787455.2,286046999.5,N
1704787475.0,286046996.5,N
1704787475.9,286046996.5,N
1704787495.8,286046997.9,N
1704787515.6,286046997.5,N
1704787535.4,286046997.6,N
1704787555.3,286046995.0,Y
1704787575.1,286046999.0,P
1704787595.9,286047000.9,N
1704787615.7,286047002.7,N
1704787635.6,286047000.0,N
1704787655.4,286047001.0,N
1704787675.2,286047000.2,N
1704787695.1,286047002.3,N
1704787696.0,286047002.3,N
1704787715.8,286046999.7,N
1704787735.6,286047000.5,N
1704787755.5,286047000.2,N
1704787775.3,286046999.8,N
1704787795.2,286046999.9,N
1704787815.9,286047000.9,N
1704787835.7,286046998.6,N
1704787855.6,286046998.6,N
1704787875.4,286046998.5,N
1704787895.2,286046998.6,N
1704787915.1,286046998.4,N
1704787916.0,286046998.4,N
1704787935.8,286046998.6,N
1704787955.7,286046996.7,N
1704787975.5,286046997.9,N
1704787995.3,286046997.8,N
1704788015.2,286046997.3,N
1704788035.0,286046996.8,N
1704788035.9,286046996.8,N
1704788055.7,286046997.8,N
1704788075.6,286046995.0,Y
1704788095.4,286046995.0,P
1704788115.3,286046994.9,N
1704788135.1,286046998.0,N
1704788155.8,286046995.3,N
1704788175.7,286046995.1,N
1704788195.5,286046995.2,N
1704788215.4,286046998.0,N
1704788235.2,286046997.1,N
1704788255.0,286046997.2,N
1704788255.9,286046997.2,N
1704788275.8,286046996.9,N
1704788295.6,286046997.8,N
1704788315.4,286046996.6,N
1704788335.3,286046997.9,N
1704788355.1,286046996.2,N
1704788375.9,286046996.3,N
1704788395.7,286046995.3,Y
1704788415.5,286047000.8,P
1704788435.4,286047000.2,N
1704788455.2,286047001.0,N
1704788475.0,286047001.1,N
1704788475.9,286047001.1,N
1704788495.8,286047001.0,N
1704788515.6,286047000.1,N
1704788535.5,286047001.6,N
1704788555.3,286047001.9,N
1704788575.1,286047000.1,N
1704788595.9,286046999.7,N
1704788615.7,286047002.3,N
1704788635.5,286046999.8,N
1704788655.4,286046999.9,N
1704788675.2,286047002.2,N
1704788695.1,286047002.4,N
1704788696.0,286047002.4,N
1704788715.8,286046999.8,N
1704788735.6,286047002.8,N
1704788755.5,286047002.4,N
1704788775.3,286047001.8,N
1704788795.2,286047001.3,N
1704788815.0,286047004.4,Y
1704788815.9,286047004.4,P
1704788835.7,286047002.1,N
1704788855.6,286047001.8,N
1704788875.4,286047002.4,N
1704788895.3,286047000.3,N
1704788915.1,286047002.4,N
1704788935.8,286046999.8,N
1704788955.7,286047001.0,N
1704788975.5,286047001.0,N
1704788995.4,286047000.2,N
1704789015.2,286047002.6,N
1704789035.0,286047000.4,N
1704789035.9,286047000.4,N
1704789055.8,286046999.7,N
1704789075.6,286047002.2,N
1704789095.4,286047000.2,N
1704789115.3,286047001.1,N
1704789135.1,286047000.2,N
1704789155.9,286047001.5,N
1704789175.7,286047002.2,N
1704789195.5,286047004.0,Y
1704789215.4,286047002.0,P
1704789235.2,286047001.7,P
1704789255.1,286047004.4,P
1704789256.0,286047004.4,Y
1704789275.8,286046998.5,P
1704789295.6,286046999.0,N
1704789315.5,286046998.3,N
1704789335.3,286046998.1,N
1704789355.1,286046998.5,N
1704789375.9,286046998.8,N
1704789395.7,286046998.9,N
1704789415.6,286046999.0,N
1704789435.4,286046999.5,N
1704789455.2,286046999.1,N
1704789475.1,286046996.6,Y
1704789476.0,286046996.6,P
1704789495.8,286046996.6,N
1704789515.7,286047001.2,N
1704789535.5,286046998.5,N
1704789555.3,286047000.6,N
1704789575.2,286047000.4,N
1704789595.0,286047001.0,N
1704789595.9,286047001.0,N
1704789615.7,286047000.5,N
1704789635.6,286046998.5,N
1704789655.4,286046996.6,N
1704789675.3,286046999.4,N
1704789695.1,286047001.2,N
1704789696.0,286047001.2,N
1704789715.8,286047000.2,N
1704789735.7,286047002.6,N
1704789755.5,286047000.0,N
1704789775.3,286047000.8,N
1704789795.2,286046998.1,N
1704789815.0,286046998.6,N
1704789815.9,286046998.6,N
1704789835.8,286046998.8,N
1704789855.6,286047000.5,N
1704789875.4,286047002.8,N
1704789895.3,286047001.0,N
1704789915.1,286047000.8,N
1704789935.8,286047000.5,N
1704789955.7,286047000.1,N
1704789975.5,286046999.7,N
1704789995.4,286047001.6,N
1704790015.2,286047001.5,N
1704790035.0,286047001.4,N
1704790035.9,286047001.4,N
1704790055.8,286047004.2,Y
1704790075.6,286047002.0,P
1704790095.5,286047004.2,P
1704790115.3,286047001.8,N
1704790135.1,286047001.9,N
1704790155.9,286047000.6,N
1704790175.7,286046999.0,N
1704790195.5,286046996.6,N
1704790215.4,286046998.6,N
1704790235.2,286047000.4,N
1704790255.1,286047000.3,N
1704790256.0,286047000.3,N
1704790275.8,286046999.9,N
1704790295.6,286047000.5,N
1704790315.5,286047000.6,N
1704790335.3,286047000.5,N
1704790355.1,286047000.5,N
1704790375.9,286047000.4,N
1704790395.7,286047000.3,N
1704790415.6,286047000.6,N
1704790435.4,286047000.1,N
1704790455.2,286047002.3,N
1704790475.1,286047002.8,N
1704790476.0,286047002.8,N
1704790495.8,286046999.8,N
1704790515.7,286047000.0,N
1704790535.5,286047000.2,N
1704790555.3,286047001.2,N
1704790575.2,286047001.0,N
1704790595.9,286047000.9,N
1704790615.7,286047000.3,N
1704790635.6,286047000.5,N
1704790655.4,286047000.1,N
1704790675.3,286047002.8,N
1704790695.1,286047002.3,N
1704790696.0,286047002.3,N
1704790715.8,286047001.9,N
1704790735.7,286047001.3,N
1704790755.5,286047003.5,Y
1704790775.3,286047001.4,P
1704790795.2,286047011.9,P
